Location: Wyoming Infrared Observatory
(41.0971°N, 105.9765°W)
Time: 14:17:58
(UTC-06:00)

Amateur Radio Satellites - All Passes

Search period start: 30 September 2016 13:47
Search period end: 01 October 2016 13:47
Location: Wyoming Infrared Observatory, 41.0971°N, 105.9765°W

Satellite Date Start Highest point End Downlink Frequencies (MHz)
Time Altitude Azimuth
BUGSAT 1 30 Sep 13:49:36 13:51:23 12° 269° (W) 13:53:09 437.445
AIST 2 30 Sep 13:56:04 13:57:02 11° 253° (WSW) 13:58:01 435.215
M-CUBED/EXP-1 PRIME 30 Sep 14:07:04 14:10:03 33° 293° (WNW) 14:13:03 437.505
ITAMSAT 1 30 Sep 14:07:44 14:11:38 22° 64° (ENE) 14:15:32 435.822/435.867
DX 1 30 Sep 14:11:11 14:15:01 31° 291° (WNW) 14:18:49 434.975-435.025
JAS-2 30 Sep 14:16:30 14:18:35 11° 278° (W) 14:20:45 435.910
TISAT 1 30 Sep 14:26:07 14:30:17 71° 101° (ESE) 14:34:27 437.305
Gurwin Techsat 1B 30 Sep 14:27:53 14:33:10 72° 257° (WSW) 14:38:30 435.225
CUBEBUG 1 30 Sep 14:28:07 14:29:15 11° 299° (WNW) 14:30:24 437.445
VELOX 1 30 Sep 14:30:40 14:32:52 14° 298° (WNW) 14:35:05 145.980
SO-50 30 Sep 14:34:21 14:38:56 44° 116° (ESE) 14:43:29 436.795
ITUPSAT 1 30 Sep 14:35:02 14:38:07 17° 92° (E) 14:41:09 437.325
Cosmos 2504 30 Sep 14:44:25 14:51:33 45° 76° (ENE) 14:59:07 435.465 / 435.565
SWISSCUBE 30 Sep 14:45:48 14:49:42 24° 95° (E) 14:53:36 437.505
Oscar 19 30 Sep 14:47:17 14:51:22 23° 266° (W) 14:55:28 437.125/150
AO-7 30 Sep 14:51:04 14:58:47 44° 62° (ENE) 15:06:29 29.400- 29.500
SPROUT 30 Sep 14:54:15 14:56:03 12° 297° (WNW) 14:57:50 437.525
PCSat 30 Sep 14:56:12 14:59:53 19° 255° (WSW) 15:03:32 145.827
BEESAT 30 Sep 14:58:15 15:02:25 29° 96° (E) 15:06:34 436.000
PHONESAT 2.4 30 Sep 15:18:06 15:19:45 14° 210° (SSW) 15:21:25 2401.200-2431.200
AIST 1 30 Sep 15:31:34 15:34:35 18° 72° (ENE) 15:37:34
Cosmos 2491 30 Sep 15:39:46 15:48:30 69° 280° (W) 15:57:21 435.465 / 435.565
YUBILEINY 30 Sep 15:44:47 15:52:19 35° 275° (W) 15:59:53 435.215
ITAMSAT 1 30 Sep 15:45:47 15:50:45 47° 261° (W) 15:55:46 435.822/435.867
MOZHAYETS 4 30 Sep 15:58:19 16:01:55 22° 94° (E) 16:05:31
KKS-1 30 Sep 16:02:49 16:05:05 14° 91° (E) 16:07:21 437.445
TISAT 1 30 Sep 16:04:27 16:05:21 11° 298° (WNW) 16:06:14 437.305
BRITE-PL 30 Sep 16:04:37 16:05:13 10° 58° (ENE) 16:05:49 437.365/2234.400
O/OREOS (USA 219) 30 Sep 16:08:20 16:12:15 27° 59° (ENE) 16:16:07 437.305
ITUPSAT 1 30 Sep 16:11:33 16:16:13 52° 288° (WNW) 16:20:53 437.325
SO-50 30 Sep 16:15:31 16:19:34 26° 314° (NW) 16:23:35 436.795
HORYU 2 30 Sep 16:20:31 16:23:33 19° 65° (ENE) 16:26:36 437.375
SWISSCUBE 30 Sep 16:23:11 16:27:33 35° 291° (WNW) 16:31:55 437.505
STARS 30 Sep 16:28:33 16:30:16 12° 91° (E) 16:31:59 437.465
BEESAT 30 Sep 16:35:58 16:40:08 30° 292° (WNW) 16:44:16 436.000
Cosmos 2504 30 Sep 16:38:05 16:44:43 35° 273° (W) 16:51:46 435.465 / 435.565
AO-7 30 Sep 16:43:44 16:51:31 43° 260° (W) 16:59:20 29.400- 29.500
AIST 1 30 Sep 17:08:24 17:12:17 35° 269° (W) 17:16:09
GOMX 1 30 Sep 17:13:03 17:16:38 19° 65° (ENE) 17:20:07 467.674
CUSAT 1 30 Sep 17:25:36 17:27:13 11° 74° (ENE) 17:28:53 437.405
CUBESAT XI-V 30 Sep 17:26:12 17:30:01 24° 94° (E) 17:33:47 437.345
MOZHAYETS 4 30 Sep 17:34:54 17:39:10 37° 290° (WNW) 17:43:26
NOAA 18 30 Sep 17:35:34 17:39:46 23° 63° (ENE) 17:44:00 137.9125
BRITE-PL 30 Sep 17:37:05 17:42:44 69° 75° (ENE) 17:48:14 437.365/2234.400
KKS-1 30 Sep 17:37:39 17:41:58 54° 287° (WNW) 17:46:16 437.445
NOAA 15 30 Sep 17:41:02 17:45:50 37° 68° (ENE) 17:50:42 137.62
Cosmos 2491 30 Sep 17:43:05 17:47:13 14° 303° (WNW) 17:51:23 435.465 / 435.565
O/OREOS (USA 219) 30 Sep 17:47:35 17:51:38 31° 256° (WSW) 17:55:39 437.305
HORYU 2 30 Sep 17:55:37 17:59:47 42° 261° (W) 18:03:59 437.375
STARS 30 Sep 18:02:41 18:06:59 60° 287° (WNW) 18:11:17 437.465
CUTE-I 30 Sep 18:07:13 18:12:19 51° 71° (ENE) 18:17:28 437.470
Cubesat XI-IV 30 Sep 18:08:04 18:13:12 52° 71° (ENE) 18:18:21 437.490
GONETS M04 30 Sep 18:11:39 18:17:19 18° 61° (ENE) 18:22:55
HO-68 30 Sep 18:24:54 18:29:38 19° 55° (NE) 18:34:23 435.675
ISS 30 Sep 18:31:15 18:32:53 13° 130° (SE) 18:34:32 145.825
RS-15 30 Sep 18:32:39 18:42:05 31° 102° (ESE) 18:51:51 29.354- 29.394
LilacSat-2 30 Sep 18:43:03 18:46:46 64° 259° (W) 18:50:32 437.200
GOMX 1 30 Sep 18:49:03 18:54:19 57° 260° (W) 18:59:21 467.674
DOVE 4 30 Sep 18:54:46 18:59:44 75° 76° (ENE) 19:04:25 437.250
CUSAT 1 30 Sep 19:01:00 19:07:25 66° 94° (E) 19:15:07 437.405
CUBESAT XI-V 30 Sep 19:03:12 19:07:25 34° 290° (WNW) 19:11:35 437.345
SEEDS 30 Sep 19:05:05 19:06:32 12° 63° (ENE) 19:08:00 437.485
CUTE 1.7 + AOD 2 30 Sep 19:07:57 19:10:49 18° 66° (ENE) 19:13:43 437.475
CANX-2 30 Sep 19:09:27 19:12:40 21° 67° (ENE) 19:15:55 2200.000
NOAA 18 30 Sep 19:14:49 19:20:05 49° 260° (W) 19:25:23 137.9125
BRITE-PL 30 Sep 19:18:02 19:21:34 17° 270° (W) 19:25:04 437.365/2234.400
NOAA 15 30 Sep 19:21:08 19:25:39 28° 265° (W) 19:30:12 137.62
DANDE 30 Sep 19:21:17 19:26:15 36° 87° (E) 19:32:31 436.750
Cosmos 2499 30 Sep 19:38:11 19:45:37 52° 77° (ENE) 19:53:36 435.465 / 435.565
CINEMA 3 30 Sep 19:44:06 19:48:28 63° 75° (ENE) 19:52:42 145.822/145.860
STRAND 1 30 Sep 19:44:24 19:48:56 30° 96° (E) 19:53:27 437.568
CUTE-I 30 Sep 19:48:50 19:52:38 20° 267° (W) 19:56:29 437.470
Cubesat XI-IV 30 Sep 19:49:45 19:53:33 20° 267° (W) 19:57:22 437.490
COMPASS 1 30 Sep 20:03:16 20:07:02 33° 71° (ENE) 20:10:49 437.405
ISS 30 Sep 20:05:45 20:08:59 67° 326° (NW) 20:12:14 145.825
GONETS M04 30 Sep 20:06:40 20:15:32 86° 82° (E) 20:24:17
HO-68 30 Sep 20:09:16 20:16:28 87° 255° (WSW) 20:23:40 435.675
AO-85 30 Sep 20:15:01 20:19:56 42° 116° (ESE) 20:24:34 145.980
FUNcube-1 30 Sep 20:21:13 20:23:43 16° 65° (ENE) 20:26:14 145.935
CUBEBUG 2 30 Sep 20:30:11 20:34:14 51° 74° (ENE) 20:38:16 437.445
DOVE 4 30 Sep 20:36:15 20:37:49 11° 270° (W) 20:39:21 437.250
SEEDS 30 Sep 20:37:30 20:41:40 66° 259° (WSW) 20:45:54 437.485
UWE-3 30 Sep 20:41:30 20:45:27 44° 73° (ENE) 20:49:24 435.000/436.395/437.385
RS-15 30 Sep 20:41:39 20:53:18 77° 305° (NW) 21:05:37 29.354- 29.394
CUTE 1.7 + AOD 2 30 Sep 20:42:23 20:46:21 40° 262° (W) 20:50:23 437.475
CANX-2 30 Sep 20:44:30 20:48:19 33° 263° (W) 20:52:11 2200.000
CUSAT 1 30 Sep 20:44:37 20:50:10 26° 296° (WNW) 20:56:26 437.405
AAUSAT CUBESAT 2 30 Sep 20:50:35 20:54:45 88° 267° (W) 20:58:58 437.432
Oscar 11 30 Sep 20:55:06 20:59:07 39° 72° (ENE) 21:03:10 145.826/435.025
ZACube-1 30 Sep 21:03:24 21:07:22 49° 73° (ENE) 21:11:24 437.345
DANDE 30 Sep 21:03:49 21:08:58 36° 292° (WNW) 21:15:30 436.750
STRAND 1 30 Sep 21:23:31 21:28:04 33° 292° (WNW) 21:32:37 437.568
CINEMA 3 30 Sep 21:24:43 21:25:58 11° 270° (W) 21:27:12 145.822/145.860
Cosmos 2499 30 Sep 21:31:53 21:38:24 31° 274° (W) 21:45:18 435.465 / 435.565
COMPASS 1 30 Sep 21:39:34 21:42:39 20° 267° (W) 21:45:45 437.405
DELFI C3 30 Sep 21:42:45 21:46:39 52° 74° (ENE) 21:50:34 145.870
ISS 30 Sep 21:43:41 21:45:57 17° 345° (NNW) 21:48:14 145.825
FUNcube-1 30 Sep 21:55:41 21:59:37 42° 262° (W) 22:03:34 145.935
AO-85 30 Sep 21:56:04 22:00:30 29° 312° (NW) 22:04:41 145.980
HO-68 30 Sep 22:01:24 22:05:05 15° 271° (W) 22:08:48 435.675
UNISAT 6 30 Sep 22:04:58 22:06:09 11° 90° (E) 22:07:21 437.425
GONETS M04 30 Sep 22:05:33 22:11:07 19° 282° (WNW) 22:16:39
CUBEBUG 2 30 Sep 22:09:25 22:11:10 12° 269° (W) 22:12:55 437.445
PRISM 30 Sep 22:12:06 22:16:14 81° 287° (WNW) 22:20:20 437.425
UWE-3 30 Sep 22:19:55 22:22:10 14° 269° (W) 22:24:24 435.000/436.395/437.385
ESTCUBE 1 30 Sep 22:30:02 22:32:47 16° 63° (ENE) 22:35:31 437.505/2401.250
HUMSAT D 30 Sep 22:30:21 22:34:26 88° 268° (W) 22:38:35 437.325/437.525
Oscar 11 30 Sep 22:32:29 22:35:24 18° 267° (W) 22:38:21 145.826/435.025
ANTELSAT 30 Sep 22:38:02 22:41:45 26° 95° (E) 22:45:32 437.575/2403.000
ZACube-1 30 Sep 22:42:03 22:43:58 13° 269° (W) 22:45:53 437.345
TIGRISAT 30 Sep 22:57:16 23:01:26 39° 98° (E) 23:05:40 435.000
RS-15 30 Sep 22:58:07 23:08:14 30° 333° (NNW) 23:18:42 29.354- 29.394
SO-50 30 Sep 23:05:54 23:10:12 38° 50° (NE) 23:14:23 436.795
AISAT 30 Sep 23:07:27 23:10:41 20° 66° (ENE) 23:13:55 437.250
M-CUBED/EXP-1 PRIME 30 Sep 23:19:23 23:22:20 20° 64° (ENE) 23:25:08 437.505
DELFI C3 30 Sep 23:20:19 23:21:47 12° 270° (W) 23:23:16 145.870
ISS 30 Sep 23:21:42 23:23:26 13° 5° (N) 23:25:11 145.825
DX 1 30 Sep 23:30:59 23:34:16 21° 66° (ENE) 23:37:33 434.975-435.025
QB50P2 30 Sep 23:31:44 23:33:37 13° 91° (E) 23:35:31 145.880/145.840
POLYITAN 1 30 Sep 23:33:54 23:35:47 13° 91° (E) 23:37:40 437.675
JAS-2 30 Sep 23:36:34 23:42:07 21° 88° (E) 23:47:24 435.910
UNISAT 6 30 Sep 23:38:51 23:43:17 69° 285° (WNW) 23:47:47 437.425
CUBEBUG 1 30 Sep 23:44:41 23:49:02 59° 74° (ENE) 23:53:22 437.445
50 SAT 30 Sep 23:46:09 23:49:34 40° 73° (ENE) 23:53:01 437.505
VELOX 1 30 Sep 23:49:26 23:53:45 51° 73° (ENE) 23:58:04 145.980
BEESAT 3 30 Sep 23:55:29 23:58:49 28° 114° (ESE) 00:02:13 437.485
Cosmos 2491 30 Sep 23:57:12 00:00:03 12° 55° (NE) 00:02:53 435.465 / 435.565
ESTCUBE 1 01 Oct 00:04:42 00:09:08 53° 260° (W) 00:13:36 437.505/2401.250
DUCHIFAT 1 01 Oct 00:05:32 00:09:00 25° 95° (E) 00:12:28 145.980
SPROUT 01 Oct 00:09:35 00:13:39 45° 72° (ENE) 00:17:43 437.525
QB50P1 01 Oct 00:11:14 00:15:04 33° 97° (E) 00:18:53 145.935-145.965
AUBIESAT-1 01 Oct 00:12:14 00:16:10 67° 70° (ENE) 00:19:51 437.475
ANTELSAT 01 Oct 00:14:34 00:18:26 30° 291° (WNW) 00:22:21 437.575/2403.000
POPSAT HIP 1 01 Oct 00:24:55 00:29:00 46° 100° (E) 00:33:04 437.405
UKube-1 01 Oct 00:30:26 00:34:44 71° 74° (ENE) 00:39:03 .
TIGRISAT 01 Oct 00:34:37 00:37:52 20° 293° (WNW) 00:41:09 435.000
NANOSAT C BR1 01 Oct 00:38:44 00:42:55 65° 101° (E) 00:47:06 145.865
AISAT 01 Oct 00:42:42 00:46:52 39° 261° (W) 00:51:03 437.250
SO-50 01 Oct 00:46:48 00:50:27 24° 248° (WSW) 00:54:02 436.795
M-CUBED/EXP-1 PRIME 01 Oct 00:53:05 00:56:42 31° 256° (WSW) 01:00:07 437.505
BEESAT 2 01 Oct 00:57:30 01:01:24 68° 120° (ESE) 01:05:21 435.950
ISS 01 Oct 00:57:49 01:00:44 29° 25° (NNE) 01:03:39 145.825
QB50P2 01 Oct 01:05:36 01:09:44 53° 286° (WNW) 01:13:51 145.880/145.840
DX 1 01 Oct 01:06:12 01:10:13 35° 262° (W) 01:14:16 434.975-435.025
POLYITAN 1 01 Oct 01:07:46 01:11:53 53° 287° (WNW) 01:16:00 437.675
RS-15 01 Oct 01:17:07 01:26:21 23° 9° (N) 01:35:39 29.354- 29.394
TISAT 1 01 Oct 01:17:23 01:21:25 50° 73° (ENE) 01:25:28 437.305
JAS-2 01 Oct 01:20:00 01:27:54 80° 287° (WNW) 01:35:17 435.910
Oscar 19 01 Oct 01:20:04 01:22:53 15° 91° (E) 01:25:41 437.125/150
50 SAT 01 Oct 01:21:43 01:23:15 12° 268° (W) 01:24:49 437.505
CUBEBUG 1 01 Oct 01:23:47 01:25:40 12° 269° (W) 01:27:32 437.445
VELOX 1 01 Oct 01:28:01 01:30:30 15° 268° (W) 01:32:58 145.980
BUGSAT 1 01 Oct 01:28:34 01:32:36 90° 239° (WSW) 01:36:39 437.445
BEESAT 3 01 Oct 01:33:06 01:36:25 26° 311° (NW) 01:39:48 437.485
DUCHIFAT 1 01 Oct 01:41:06 01:44:38 27° 291° (WNW) 01:48:10 145.980
ITUPSAT 1 01 Oct 01:41:45 01:45:11 20° 64° (ENE) 01:48:39 437.325
SPROUT 01 Oct 01:47:18 01:49:48 15° 268° (W) 01:52:19 437.525
QB50P1 01 Oct 01:47:28 01:50:38 21° 293° (WNW) 01:53:47 145.935-145.965
Cosmos 2491 01 Oct 01:50:16 01:59:02 61° 78° (ENE) 02:07:42 435.465 / 435.565
SWISSCUBE 01 Oct 01:52:09 01:56:12 28° 67° (ENE) 02:00:16 437.505
POPSAT HIP 1 01 Oct 02:01:53 02:04:24 16° 295° (WNW) 02:06:53 437.405
BEESAT 01 Oct 02:04:29 02:08:44 33° 69° (ENE) 02:13:00 436.000
AIST 2 01 Oct 02:14:03 02:16:20 15° 109° (ESE) 02:18:38 435.215
NANOSAT C BR1 01 Oct 02:16:39 02:18:05 12° 298° (WNW) 02:19:32 145.865
ISS 01 Oct 02:34:11 02:37:17 39° 222° (SW) 02:40:22 145.825
BEESAT 2 01 Oct 02:37:28 02:39:39 14° 318° (NW) 02:41:51 435.950
Gurwin Techsat 1B 01 Oct 02:44:14 02:49:21 45° 99° (E) 02:54:25 435.225
YUBILEINY 01 Oct 02:47:50 02:56:22 59° 91° (E) 03:04:53 435.215
TISAT 1 01 Oct 02:55:20 02:57:21 13° 269° (W) 02:59:21 437.305
AO-7 01 Oct 02:56:37 02:58:35 11° 86° (E) 03:00:33 29.400- 29.500
Oscar 19 01 Oct 02:57:32 03:02:39 65° 287° (WNW) 03:07:43 437.125/150
MOZHAYETS 4 01 Oct 03:00:22 03:03:47 21° 66° (ENE) 03:07:14
KKS-1 01 Oct 03:01:16 03:03:32 14° 62° (ENE) 03:05:48 437.445
JAS-2 01 Oct 03:06:47 03:11:38 18° 306° (NW) 03:16:23 435.910
ITUPSAT 1 01 Oct 03:18:08 03:22:41 45° 261° (W) 03:27:17 437.325
Cosmos 2504 01 Oct 03:23:44 03:30:12 35° 87° (E) 03:36:32 435.465 / 435.565
STARS 01 Oct 03:25:45 03:27:23 12° 62° (ENE) 03:29:00 437.465
SWISSCUBE 01 Oct 03:29:43 03:33:53 30° 264° (W) 03:38:07 437.505
RS-15 01 Oct 03:31:31 03:43:17 46° 41° (NE) 03:54:50 29.354- 29.394
BEESAT 01 Oct 03:42:36 03:46:32 25° 265° (W) 03:50:29 436.000
Cosmos 2491 01 Oct 03:48:03 03:55:13 29° 278° (W) 04:02:23 435.465 / 435.565
AIST 2 01 Oct 03:50:22 03:54:22 51° 306° (NW) 03:58:26 435.215
PCSat 01 Oct 03:52:57 03:58:14 56° 114° (ESE) 04:03:33 145.827
ITAMSAT 1 01 Oct 03:58:21 04:03:32 61° 102° (ESE) 04:08:42 435.822/435.867
AIST 1 01 Oct 04:02:55 04:04:07 11° 83° (E) 04:05:19
Gurwin Techsat 1B 01 Oct 04:24:49 04:28:59 24° 296° (WNW) 04:33:08 435.225
CUBESAT XI-V 01 Oct 04:29:25 04:33:11 24° 67° (ENE) 04:36:59 437.345
KKS-1 01 Oct 04:35:12 04:39:36 60° 259° (W) 04:44:00 437.445
MOZHAYETS 4 01 Oct 04:36:25 04:40:41 39° 262° (W) 04:44:59
AO-7 01 Oct 04:44:33 04:52:49 67° 105° (ESE) 05:01:03 29.400- 29.500
YUBILEINY 01 Oct 04:46:06 04:53:37 31° 291° (WNW) 05:01:09 435.215
AO-85 01 Oct 04:47:18 04:51:01 30° 48° (NE) 04:54:31 145.980
STARS 01 Oct 04:58:47 05:03:09 69° 258° (WSW) 05:07:32 437.465
Cosmos 2504 01 Oct 05:16:39 05:23:26 40° 285° (WNW) 05:30:06 435.465 / 435.565
CUSAT 1 01 Oct 05:36:23 05:43:42 50° 73° (ENE) 05:49:39 437.405
AIST 1 01 Oct 05:36:47 05:41:07 61° 279° (W) 05:45:27
PCSat 01 Oct 05:37:39 05:41:58 24° 313° (NW) 05:46:20 145.827
ITAMSAT 1 01 Oct 05:39:04 05:42:30 18° 298° (WNW) 05:45:57 435.822/435.867
BRITE-PL 01 Oct 05:43:50 05:47:10 19° 91° (E) 05:50:19 437.365/2234.400
RS-15 01 Oct 05:44:19 05:56:27 65° 246° (WSW) 06:08:14 29.354- 29.394
HORYU 2 01 Oct 05:46:22 05:50:27 34° 98° (E) 05:54:31 437.375
NOAA 15 01 Oct 05:57:53 06:00:19 13° 90° (E) 06:02:43 137.62
DANDE 01 Oct 05:59:00 06:06:41 38° 69° (ENE) 06:13:41 436.750
CUBESAT XI-V 01 Oct 06:06:05 06:10:22 35° 263° (W) 06:14:42 437.345
LilacSat-2 01 Oct 06:17:48 06:19:44 13° 92° (E) 06:21:41 437.200
O/OREOS (USA 219) 01 Oct 06:20:31 06:24:27 29° 103° (ESE) 06:28:25 437.305
CUTE-I 01 Oct 06:25:02 06:28:59 21° 93° (E) 06:32:54 437.470
Cubesat XI-IV 01 Oct 06:26:04 06:30:03 21° 93° (E) 06:34:00 437.490
AO-85 01 Oct 06:28:00 06:31:16 24° 248° (WSW) 06:34:25 145.980
AO-7 01 Oct 06:38:09 06:44:59 30° 304° (WNW) 06:51:48 29.400- 29.500
GOMX 1 01 Oct 06:51:35 06:55:39 39° 97° (E) 06:59:34 467.674
DOVE 4 01 Oct 06:54:56 06:57:41 17° 92° (E) 07:00:25 437.250
STRAND 1 01 Oct 07:00:05 07:04:52 43° 70° (ENE) 07:09:42 437.568
GONETS M04 01 Oct 07:14:10 07:20:02 20° 78° (ENE) 07:25:54
CUSAT 1 01 Oct 07:19:02 07:25:13 30° 276° (W) 07:30:27 437.405
BRITE-PL 01 Oct 07:21:31 07:25:53 38° 290° (WNW) 07:29:55 437.365/2234.400
HORYU 2 01 Oct 07:23:20 07:26:48 23° 294° (WNW) 07:30:16 437.375
NOAA 15 01 Oct 07:35:20 07:40:39 76° 286° (WNW) 07:45:53 137.62
NOAA 18 01 Oct 07:36:34 07:42:03 71° 104° (ESE) 07:47:31 137.9125
HO-68 01 Oct 07:38:47 07:43:19 18° 90° (E) 07:47:49 435.675
CINEMA 3 01 Oct 07:39:57 07:42:09 14° 92° (E) 07:44:22 145.822/145.860
DANDE 01 Oct 07:41:41 07:49:41 51° 269° (W) 07:56:50 436.750
LilacSat-2 01 Oct 07:50:35 07:54:13 41° 287° (WNW) 07:57:52 437.200
O/OREOS (USA 219) 01 Oct 07:59:53 08:03:49 28° 301° (WNW) 08:07:47 437.305
RS-15 01 Oct 08:01:31 08:06:16 13° 267° (W) 08:10:58 29.354- 29.394
CUTE-I 01 Oct 08:04:07 08:09:17 51° 289° (WNW) 08:14:27 437.470
Cubesat XI-IV 01 Oct 08:05:12 08:10:22 50° 290° (WNW) 08:15:32 437.490
BEESAT 3 01 Oct 08:12:35 08:15:31 19° 45° (NE) 08:18:26 437.485
Cosmos 2499 01 Oct 08:15:47 08:22:14 39° 88° (E) 08:28:39 435.465 / 435.565
SEEDS 01 Oct 08:22:06 08:25:18 20° 93° (E) 08:28:28 437.485
CUBEBUG 2 01 Oct 08:22:55 08:24:12 11° 90° (E) 08:25:27 437.445
CUTE 1.7 + AOD 2 01 Oct 08:27:11 08:31:06 33° 96° (E) 08:34:59 437.475
CANX-2 01 Oct 08:29:06 08:33:12 41° 98° (E) 08:37:15 2200.000
GOMX 1 01 Oct 08:30:35 08:33:26 17° 295° (WNW) 08:36:11 467.674
DOVE 4 01 Oct 08:31:44 08:35:34 36° 289° (WNW) 08:39:21 437.250
AAUSAT CUBESAT 2 01 Oct 08:34:18 08:36:38 14° 91° (E) 08:38:57 437.432
STRAND 1 01 Oct 08:40:17 08:44:13 22° 266° (W) 08:48:11 437.568
PRISM 01 Oct 09:00:52 09:05:01 70° 75° (ENE) 09:09:12 437.425
GONETS M04 01 Oct 09:06:50 09:15:41 83° 277° (W) 09:24:36
CINEMA 3 01 Oct 09:15:29 09:19:32 48° 287° (WNW) 09:23:41 145.822/145.860
BEESAT 2 01 Oct 09:15:31 09:19:19 38° 52° (NE) 09:23:05 435.950
PHONESAT 2.4 01 Oct 09:18:16 09:20:36 22° 155° (SSE) 09:22:57 2401.200-2431.200
NOAA 15 01 Oct 09:18:38 09:19:29 10° 304° (WNW) 09:20:19 137.62
NOAA 18 01 Oct 09:18:44 09:22:06 17° 300° (WNW) 09:25:29 137.9125
COMPASS 1 01 Oct 09:21:00 09:25:12 65° 101° (E) 09:29:22 437.405
HO-68 01 Oct 09:24:36 09:31:47 82° 288° (WNW) 09:38:56 435.675
ANTELSAT 01 Oct 09:37:19 09:40:34 22° 67° (ENE) 09:43:49 437.575/2403.000
FUNcube-1 01 Oct 09:43:15 09:47:14 33° 97° (E) 09:51:17 145.935
BEESAT 3 01 Oct 09:49:34 09:53:22 43° 243° (WSW) 09:57:08 437.485
TIGRISAT 01 Oct 09:56:07 09:59:53 32° 70° (ENE) 10:03:41 435.000
CUBEBUG 2 01 Oct 09:56:53 10:01:10 65° 286° (WNW) 10:05:35 437.445
SEEDS 01 Oct 09:57:13 10:01:03 33° 290° (WNW) 10:04:52 437.485
CUTE 1.7 + AOD 2 01 Oct 10:03:28 10:06:44 21° 293° (WNW) 10:09:59 437.475
CANX-2 01 Oct 10:05:48 10:08:43 18° 294° (WNW) 10:11:38 2200.000
UWE-3 01 Oct 10:06:44 10:11:05 78° 285° (WNW) 10:15:33 435.000/436.395/437.385
AAUSAT CUBESAT 2 01 Oct 10:08:20 10:12:21 45° 287° (WNW) 10:16:20 437.432
Cosmos 2499 01 Oct 10:08:57 10:15:19 35° 287° (WNW) 10:21:44 435.465 / 435.565
HUMSAT D 01 Oct 10:14:54 10:17:26 15° 92° (E) 10:19:58 437.325/437.525
Oscar 11 01 Oct 10:17:55 10:22:18 84° 102° (ESE) 10:26:40 145.826/435.025
QB50P2 01 Oct 10:26:05 10:26:39 10° 61° (ENE) 10:27:13 145.880/145.840
ZACube-1 01 Oct 10:27:17 10:31:39 73° 285° (WNW) 10:36:06 437.345
POLYITAN 1 01 Oct 10:28:19 10:28:49 10° 61° (ENE) 10:29:18 437.675
AIST 2 01 Oct 10:34:36 10:36:42 13° 40° (NE) 10:38:49 435.215
UNISAT 6 01 Oct 10:37:29 10:41:44 80° 257° (WSW) 10:46:02 437.425
PHONESAT 2.4 01 Oct 10:53:31 10:56:25 67° 170° (S) 10:59:19 2401.200-2431.200
BEESAT 2 01 Oct 10:54:00 10:56:51 19° 249° (WSW) 10:59:41 435.950
DELFI C3 01 Oct 10:54:49 10:58:51 89° 79° (E) 11:02:50 145.870
DUCHIFAT 1 01 Oct 10:57:49 11:00:45 19° 66° (ENE) 11:03:41 145.980
COMPASS 1 01 Oct 10:58:41 11:00:12 12° 297° (WNW) 11:01:42 437.405
QB50P1 01 Oct 11:03:48 11:07:14 25° 68° (ENE) 11:10:40 145.935-145.965
GONETS M04 01 Oct 11:08:28 11:13:58 18° 299° (WNW) 11:19:30
ANTELSAT 01 Oct 11:13:18 11:17:06 32° 263° (W) 11:20:56 437.575/2403.000
HO-68 01 Oct 11:14:16 11:18:26 17° 307° (NW) 11:22:36 435.675
POPSAT HIP 1 01 Oct 11:17:18 11:21:05 34° 71° (ENE) 11:24:53 437.405
FUNcube-1 01 Oct 11:19:54 11:23:18 22° 292° (WNW) 11:26:44 145.935
NANOSAT C BR1 01 Oct 11:30:32 11:34:33 46° 72° (ENE) 11:38:33 145.865
JAS-2 01 Oct 11:31:00 11:37:22 49° 67° (ENE) 11:44:29 435.910
TIGRISAT 01 Oct 11:33:25 11:36:38 21° 266° (W) 11:39:52 435.000
CUBEBUG 1 01 Oct 11:36:09 11:37:00 10° 89° (E) 11:37:51 437.445
HUMSAT D 01 Oct 11:49:11 11:53:16 46° 287° (WNW) 11:57:22 437.325/437.525
ESTCUBE 1 01 Oct 11:57:24 12:01:27 31° 96° (E) 12:05:28 437.505/2401.250
QB50P2 01 Oct 11:57:38 12:01:50 75° 258° (WSW) 12:06:03 145.880/145.840
POLYITAN 1 01 Oct 11:59:49 12:04:00 75° 259° (W) 12:08:12 437.675
AIST 2 01 Oct 12:11:32 12:15:46 84° 239° (WSW) 12:19:57 435.215
BUGSAT 1 01 Oct 12:17:51 12:21:52 59° 74° (ENE) 12:25:52 437.445
UKube-1 01 Oct 12:19:53 12:21:17 11° 91° (E) 12:22:41 .
PHONESAT 2.4 01 Oct 12:29:31 12:32:27 72° 186° (S) 12:35:22 2401.200-2431.200
DUCHIFAT 1 01 Oct 12:32:20 12:36:10 36° 262° (W) 12:40:02 145.980
AISAT 01 Oct 12:32:42 12:36:47 37° 98° (E) 12:40:50 437.250
M-CUBED/EXP-1 PRIME 01 Oct 12:33:39 12:34:27 11° 98° (E) 12:35:14 437.505
Oscar 19 01 Oct 12:36:22 12:40:22 23° 64° (ENE) 12:44:22 437.125/150
QB50P1 01 Oct 12:39:20 12:42:54 27° 264° (W) 12:46:29 145.935-145.965
PCSat 01 Oct 12:40:52 12:46:06 45° 55° (NE) 12:51:15 145.827
50 SAT 01 Oct 12:46:56 12:50:30 49° 99° (E) 12:54:02 437.505
POPSAT HIP 1 01 Oct 12:53:54 12:56:56 19° 266° (W) 13:00:00 437.405
DX 1 01 Oct 12:54:08 12:58:10 37° 98° (E) 13:02:10 434.975-435.025
YUBILEINY 01 Oct 12:58:32 13:05:48 28° 68° (ENE) 13:13:00 435.215
Cosmos 2491 01 Oct 13:01:18 13:04:22 12° 73° (ENE) 13:07:26 435.465 / 435.565
NANOSAT C BR1 01 Oct 13:08:13 13:10:31 14° 268° (W) 13:12:48 145.865
CUBEBUG 1 01 Oct 13:09:25 13:13:44 66° 285° (WNW) 13:17:59 437.445
VELOX 1 01 Oct 13:15:43 13:20:08 77° 284° (WNW) 13:24:30 145.980
JAS-2 01 Oct 13:16:45 13:22:36 32° 268° (W) 13:29:05 435.910
Cosmos 2504 01 Oct 13:17:11 13:19:47 12° 60° (ENE) 13:22:27 435.465 / 435.565
SO-50 01 Oct 13:22:25 13:24:25 13° 107° (ESE) 13:26:26 436.795
AUBIESAT-1 01 Oct 13:24:58 13:28:09 42° 105° (ESE) 13:31:22 437.475
SPROUT 01 Oct 13:30:59 13:35:16 90° 285° (WNW) 13:39:31 437.525
ESTCUBE 1 01 Oct 13:34:25 13:38:07 25° 293° (WNW) 13:41:48 437.505/2401.250
ITAMSAT 1 01 Oct 13:40:39 13:42:41 12° 58° (ENE) 13:44:43 435.822/435.867
